Hourly Data Report for September 24, 2017

All times are specified in Local Standard Time (LST). Add 1 hour to adjust for Daylight Saving Time where and when it is observed.

TORONTO INTL A
ONTARIO

43°40'36.000" N
79°37'50.000" W
173.40 m
6158731
71624
YYZ

Download Data

Hourly Data (September 2017)
Hourly Data Report for September 24, 2017
Temp Definition
°C
Dew Point Temp Definition
°C
Rel Hum Definition
%
Wind Dir Definition
10's deg

Wind Spd Definition
km/h
Visibility Definition
km
Stn Press Definition
kPa
Hmdx Definition


Wind Chill Definition


Weather Definition


TIME
00:00 Legend Double Dagger 23.1 18.8 76 31 4 24.1 99.86 30   LegendNANA
01:00 Legend Double Dagger 22.9 18.8 77 30 4 24.1 99.88 30   Clear
02:00 Legend Double Dagger 22.6 18.9 80 27 5 24.1 99.91 29   LegendNANA
03:00 Legend Double Dagger 21.9 18.3 80 32 8 24.1 99.93 28   LegendNANA
04:00 Legend Double Dagger 21.0 18.0 83 2 7 24.1 99.95 27   Clear
05:00 Legend Double Dagger 19.7 17.1 85 28 8 24.1 99.98     LegendNANA
06:00 Legend Double Dagger 21.5 18.0 80 33 9 24.1 100.02 28   LegendNANA
07:00 Legend Double Dagger 21.3 18.5 84 31 4 24.1 100.05 28   Clear
08:00 Legend Double Dagger 24.7 19.4 72 36 2 24.1 100.09 32   LegendNANA
09:00 Legend Double Dagger 27.0 19.4 63 4 4 24.1 100.09 34   LegendNANA
10:00 Legend Double Dagger 29.4 18.9 53 35 5 24.1 100.06 36   Clear
11:00 Legend Double Dagger 30.9 19.2 49 10 4 24.1 100.04 38   LegendNANA
12:00 Legend Double Dagger 32.1 18.6 44 30 5 24.1 99.99 39   LegendNANA
13:00 Legend Double Dagger 32.4 17.9 41 36 7 24.1 99.93 38   Mainly Clear
14:00 Legend Double Dagger 33.3 18.9 42 25 8 24.1 99.88 40   LegendNANA
15:00 Legend Double Dagger 33.1 18.8 42 16 13 24.1 99.84 40   LegendNANA
16:00 Legend Double Dagger 32.3 18.5 43 14 13 24.1 99.80 39   Mainly Clear
17:00 Legend Double Dagger 31.3 18.4 46 16 9 24.1 99.79 38   LegendNANA
18:00 Legend Double Dagger 30.0 18.4 49 15 10 24.1 99.79 36   LegendNANA
19:00 Legend Double Dagger 28.8 18.4 53 12 7 24.1 99.80 35   Clear
20:00 Legend Double Dagger 27.6 18.6 57 17 8 24.1 99.83 34   LegendNANA
21:00 Legend Double Dagger 26.8 18.7 60 15 7 24.1 99.85 33   LegendNANA
22:00 Legend Double Dagger 26.2 18.8 63 14 3 24.1 99.86 33   Clear
23:00 Legend Double Dagger 24.9 18.4 67 26 4 24.1 99.85 31   LegendNANA

Notes on Data Quality.

Legend

  • E = Estimated
  • M = Missing
  • NA = Not Available
  • ‡ = Partner data that is not subject to review by the National Climate Archives
Date modified: